• MPC Preparation (Info)

  • MPEC 2023-M166 : 2023 MV5

    The following Minor Planet Electronic Circular may be linked-to from your own Web pages, but must not otherwise be redistributed electronically.

    A form allowing access to any MPEC is at the bottom of this page.


    Read MPEC 2023-M165 Read MPEC 2023-M167


    M.P.E.C. 2023-M166                                Issued 2023 June 29, 20:08 UT
    
         The Minor Planet Electronic Circulars contain information on unusual
             minor planets, routine data on comets and natural satellites,
             and occasional editorial announcements.  They are published
        on behalf of Division F of the International Astronomical Union by the
              Minor Planet Center, Smithsonian Astrophysical Observatory,
                              Cambridge, MA 02138, U.S.A.
    			  
                 Prepared using the Tamkin Foundation Computer Network
    
                                  MPC@CFA.HARVARD.EDU
                URL https://www.minorplanetcenter.net/    ISSN 1523-6714
    
                                    2023 MV5                                 
    
    
    Observations:
         K23M05V* C2023 06 26.52457422 49 28.433+28 07 44.90         20.49wXEM166F52
         K23M05V  C2023 06 26.53735522 49 29.854+28 08 17.64         20.31wXEM166F52
         K23M05V  C2023 06 26.57696522 49 34.220+28 09 58.37         20.43wXEM166F52
         K23M05V  C2023 06 26.59006522 49 35.653+28 10 31.56         20.78wXEM166F52
         K23M05V KC2023 06 27.04849922 50 29.74 +28 29 30.2          20.2 GVEM166L01
         K23M05V KC2023 06 27.05102122 50 30.05 +28 29 36.4          20.2 GVEM166L01
         K23M05V KC2023 06 27.05228122 50 30.21 +28 29 39.7          20.3 GVEM166L01
         K23M05V KC2023 06 27.05354222 50 30.32 +28 29 42.6          20.3 GVEM166L01
         K23M05V KC2023 06 27.05480622 50 30.44 +28 29 46.0          20.2 GVEM166L01
         K23M05V KC2023 06 27.05775022 50 30.80 +28 29 53.0          20.4 GVEM166L01
         K23M05V KC2023 06 27.05985622 50 31.01 +28 29 58.5          20.3 GVEM166L01
         K23M05V KC2023 06 27.31061522 51 00.37 +28 40 21.1          20.6 VuEM166H21
         K23M05V KC2023 06 27.31341322 51 00.68 +28 40 27.9          20.7 VuEM166H21
         K23M05V KC2023 06 27.31649022 51 01.03 +28 40 35.6                uEM166H21
         K23M05V KC2023 06 27.31900822 51 01.30 +28 40 42.0                uEM166H21
         K23M05V KB2023 06 27.37451 22 51 07.53 +28 43 00.3          20.1 rZEM166H36
         K23M05V KB2023 06 27.38536 22 51 08.73 +28 43 27.4          19.9 rZEM166H36
         K23M05V  C2023 06 27.38798522 51 09.407+28 43 33.47         20.2 GVEM166654
         K23M05V  C2023 06 27.39199422 51 09.852+28 43 43.83         20.2 GVEM166654
         K23M05V KB2023 06 27.39617 22 51 09.94 +28 43 54.5          19.9 rZEM166H36
         K23M05V  C2023 06 27.44945422 51 16.136+28 46 06.61         20.2 GVEM166654
         K23M05V  C2023 06 27.45346422 51 16.571+28 46 16.71         20.2 GVEM166654
         K23M05V mC2023 06 27.45928322 51 17.068+28 46 32.27         20.29GVEM166I52
         K23M05V mC2023 06 27.46290322 51 17.482+28 46 41.16         20.00GVEM166I52
         K23M05V mC2023 06 27.46406822 51 17.554+28 46 43.39         19.94GVEM166I52
         K23M05V mC2023 06 27.46523922 51 17.690+28 46 46.88         20.19GVEM166I52
         K23M05V 1C2023 06 27.48962422 51 21.291+28 47 48.20         20.56GVEM166T12
         K23M05V 1C2023 06 27.49056422 51 21.396+28 47 50.62         20.40GVEM166T12
         K23M05V 1C2023 06 27.49154422 51 21.499+28 47 53.03         20.33GVEM166T12
         K23M05V 1C2023 06 27.49260422 51 21.621+28 47 55.73         20.34GVEM166T12
         K23M05V mC2023 06 28.36264822 53 00.636+29 23 05.35               VEM166I52
         K23M05V mC2023 06 28.36600522 53 01.007+29 23 13.42         20.84GVEM166I52
         K23M05V mC2023 06 28.37304122 53 01.770+29 23 30.44         20.66GVEM166I52
         K23M05V  C2023 06 28.37393422 53 01.930+29 23 31.25         20.2 GVEM166654
         K23M05V mC2023 06 28.37637522 53 02.087+29 23 38.69         20.31GVEM166I52
         K23M05V  C2023 06 28.37794322 53 02.349+29 23 41.09         20.2 GVEM166654
         K23M05V  C2023 06 28.41101722 53 05.906+29 25 01.44         20.0 GVEM166654
         K23M05V  C2023 06 28.41502622 53 06.337+29 25 11.19         20.0 GVEM166654
         K23M05V 1C2023 06 28.42507522 53 07.374+29 25 30.87               LEM166658
         K23M05V 1C2023 06 28.42784122 53 07.670+29 25 37.59               LEM166658
         K23M05V 1C2023 06 28.43060822 53 07.959+29 25 44.29               LEM166658
         K23M05V 1C2023 06 28.43337422 53 08.250+29 25 51.00               LEM166658
         K23M05V 1C2023 06 28.43614022 53 08.553+29 25 57.63               LEM166658
         K23M05V 1C2023 06 29.53702022 55 10.520+30 09 23.95         20.52GVEM166T12
         K23M05V 1C2023 06 29.53803022 55 10.627+30 09 26.70         20.72GVEM166T12
         K23M05V 1C2023 06 29.53914022 55 10.731+30 09 28.97         20.33GVEM166T12
         K23M05V 1C2023 06 29.54005022 55 10.832+30 09 31.12         20.37GVEM166T12
    
    Observer details:
    654 Table Mountain Observatory, Wrightwood-PHMC.  Observers N. Evans, P. Choi,
        N. Saini, C. Zhai, R. Trahan, M. Shao.  1.0-m Reflector + CCD.
    658 National Research Council of Canada.  Observers D. D. Balam, C. E. Spratt.
        Measurers D. D. Balam, D. W. E. Green.  1.82-m Reflector + CCD.
    F52 Pan-STARRS 2, Haleakala.  Observers J. Bulger, T. Lowe, P. Minguez, A.
        Schultz, I. Smith.  Measurers K. Chambers, T. de Boer, J. Bulger, J.
        Fairlamb, H. Gao, M. Huber, C.-C. Lin, T. Lowe, E. Magnier, P. Minguez, Y.
        Ramanjooloo, A. Schultz, I. Smith, R. Wainscoat, R. Weryk.  1.8-m Ritchey-
        Chretien + CCD.
    H21 Astronomical Research Observatory, Westfield.  Observer R. Holmes.
        Measurers T. Linder, R. Holmes, L. Horn.  0.76-m f/3.0 astrograph + CCD.
    H36 Sandlot Observatory, Scranton.  Observer G. Hug.  0.56-m f/4.2 .56 meter
        reflector + CMOS.
    I52 Steward Observatory, Mt. Lemmon Station.  Observer J. K. Hogan.  Measurers
        E. J. Christensen, D. Fay, J. B. Fazekas, D. C. Fuls, A. R. Gibbs, A. D.
        Grauer, H. Groeller, J. K. Hogan, R. A. Kowalski, S. M. Larson, G. J.
        Leonard, D. Rankin, R. L. Seaman, A. Serrano, F. C. Shelly, K. W.
        Wierzchos.  1.0-m prime focus + CCD.
    L01 Visnjan Observatory, Tican.  Observer K. Korlevic.  1.0-m f/2.9 reflector
        + CCD.
    T12 University of Hawaii 88-inch telescope, Maunakea.  Observer J. Fairlamb.
        Measurers R. Weryk, J. Fairlamb, Y. Ramanjooloo, R. Wainscoat.  2.24-m
        University of Hawaii reflector + CCD.
    
    Orbital elements:
    2023 MV5                                                 Earth MOID = 0.1579 AU
    Epoch 2023 Feb. 25.0 TT = JDT 2460000.5                 Veres                   
    M 339.28709              (2000.0)            P               Q                  
    n   0.19792425     Peri.   27.27465     +0.12102231     +0.95100321             
    a   2.9161065      Node   250.83825     -0.95679477     +0.03541944             
    e   0.6079865      Incl.   17.52961     -0.26438110     +0.30714550             
    P   4.98           H   19.77          G   0.15           U   9                  
    Residuals in seconds of arc
    230626 F52  0.0   0.1-    230627 H36  0.1+  0.0     230628 I52  0.1+  0.1-
    230626 F52  0.0   0.0     230627 654  0.1-  0.2-    230628 654  0.1-  0.1-
    230626 F52  0.0   0.0     230627 654  0.1-  0.1+    230628 I52  0.4-  0.1+
    230626 F52  0.0   0.0     230627 H36  0.5+  0.3+    230628 654  0.2-  0.1-
    230627 L01  0.2-  0.0     230627 654  0.1+  0.2-    230628 654  0.0   0.1-
    230627 L01  0.1+  0.2-    230627 654  0.1+  0.0     230628 654  0.1+  0.1-
    230627 L01  0.4+  0.0     230627 I52  0.1+  0.2+    230628 658  0.3+  0.2-
    230627 L01  0.0   0.3-    230627 I52  0.4+  0.2+    230628 658  0.3+  0.2-
    230627 L01  0.3-  0.1-    230627 I52  0.3-  0.5-    230628 658  0.2+  0.2-
    230627 L01  0.2+  0.4-    230627 I52  0.2-  0.1+    230628 658  0.1+  0.2-
    230627 L01  0.1-  0.3-    230627 T12  0.1+  0.1-    230628 658  0.2+  0.2-
    230627 H21  0.2-  0.0     230627 T12  0.1+  0.0     230629 T12  0.0   0.2-
    230627 H21  0.2-  0.2-    230627 T12  0.0   0.1-    230629 T12  0.1+  0.1+
    230627 H21  0.1-  0.2-    230627 T12  0.1+  0.0     230629 T12  0.0   0.2-
    230627 H21  0.2-  0.1-    230628 I52  0.1-  0.2+    230629 T12  0.1+  0.2-
    230627 H36  0.1-  0.1-    230628 I52  0.0   0.0
    
    Ephemeris:
    2023 MV5                 a,e,i = 2.92, 0.61, 18                  q = 1.1432
    Date    TT    R. A. (2000) Decl.     Delta      r    Elong.  Phase     V
    2023 05 30    21 35 13.3 +01 16 17   0.3840  1.1509   101.1    59.8    20.1
    ...
    2023 06 14    22 20 43.8 +17 46 07   0.4127  1.1445    97.4    61.6    20.3
    ...
    2023 06 22    22 40 01.3 +24 45 24   0.4382  1.1536    96.8    61.0    20.5
    ...
    2023 06 28    22 52 18.6 +29 08 32   0.4593  1.1660    97.1    59.9    20.6
    2023 06 29    22 54 10.8 +29 48 23   0.4629  1.1685    97.2    59.7    20.6
    2023 06 30    22 55 59.9 +30 27 09   0.4665  1.1711    97.3    59.4    20.6
    ...
    2023 07 06    23 05 50.4 +33 57 54   0.4882  1.1894    98.3    57.8    20.7
    ...
    2023 07 14    23 16 01.0 +37 45 43   0.5163  1.2202   100.4    55.0    20.8
    ...
    2023 07 29    23 25 35.5 +42 27 40   0.5639  1.2946   106.6    48.7    20.9
    
    M. P. C. Staff               (C) Copyright 2023 MPC           M.P.E.C. 2023-M166
    


    Read MPEC 2023-M165 Read MPEC 2023-M167


    MPEC number:

    Enter an MPEC number in one of the following forms:

    • 1997-B01 (the full form)
    • J97B01 (the packed version of the full form)
    • B01 (the abbreviated form)